Tracking 23762 objects as of 22-Oct-2021
HD Live streaming from Space Station
objects crossing your sky now

OBJECT RU

Track OBJECT RU now!
10-day predictions


NORAD ID: 46924
Int'l Code: 1998-067RU
Perigee: 356.9 km
Apogee: 363.2 km
Inclination: 51.6 °
Period: 91.6 minutes
Semi major axis: 6731 km
RCS: Unknown
Launch date: November 20, 1998
Source: (TBD)
Launch site: TYURATAM MISSILE AND SPACE COMPLEX (TTMTR)
aabbcc
Your satellite tracking list
Your tracking list is empty




NASA's NSSDC Master Catalog

Two Line Element Set (TLE):
1 46924U 98067RU  21294.61288119  .00097069  00000-0  71963-3 0  9999
2 46924  51.6358  53.5130 0004702 309.5938  50.4645 15.72094154 54643
Source of the keplerian elements: AFSPC